Temperature
21 21 21 21 18 17 19 20 21 21 21 21 21 20 19 18 18 18 17 17 18 18 18 18 18 18 18 18 18 17 17 17 17 18 18 18 18 18 18 18 18 18 18 18 18 18 18 17 17
21 21 21 20 18 18 19 20 20 21 22 21 21 20 19 18 18 17 17 17 18 18 18 18 18 18 18 17 17 17 17 17 17 17 18 18 18 18 18 18 18 18 18 18 18 18 17 17 17
21 21 21 18 18 18 20 20 21 22 22 22 21 20 19 18 18 18 18 17 18 18 18 18 18 18 17 17 17 17 17 17 17 17 17 17 17 17 17 17 17 17 17 17 17 17 17 17 17
21 21 20 18 19 20 20 20 21 22 22 21 20 19 18 18 18 18 18 18 18 18 17 18 17 17 17 17 17 17 17 17 17 17 17 17 17 17 17 17 17 17 17 17 17 17 17 17 17
21 21 18 19 20 20 20 21 22 21 21 21 20 18 18 18 18 18 18 18 18 18 17 17 17 17 17 17 17 17 17 17 17 17 17 17 17 17 17 17 17 17 17 17 17 17 17 17 17
21 19 18 19 20 20 21 22 22 21 21 20 19 18 18 18 18 18 18 18 18 18 17 17 17 17 17 17 17 17 17 17 17 17 17 17 17 17 17 17 17 17 17 17 17 17 17 17 17
21 18 19 19 19 20 21 22 22 21 21 20 20 18 17 18 18 18 18 18 18 18 17 17 17 17 17 17 17 17 17 17 17 17 17 17 17 17 17 17 17 17 16 17 17 16 16 16 16
22 18 19 19 20 20 22 22 22 22 21 21 20 18 18 18 18 18 18 18 17 17 17 17 17 17 17 17 16 16 16 16 16 16 16 16 16 16 17 16 16 16 16 16 16 16 16 16 16
22 18 18 20 20 20 22 22 22 22 21 21 20 20 19 18 18 18 18 17 17 17 17 17 17 17 17 16 16 16 16 16 16 16 16 16 16 16 16 16 16 16 16 16 16 16 16 16 16
21 18 20 21 21 21 22 22 22 21 20 19 19 19 19 18 18 18 18 17 17 17 17 17 17 17 17 16 16 16 16 16 16 16 16 16 16 16 16 16 16 16 16 16 16 16 16 16 16
21 20 21 22 22 22 22 22 22 21 19 19 19 19 19 18 18 18 18 18 18 17 17 17 17 17 17 17 16 16 16 16 16 16 16 16 16 16 16 16 16 16 16 16 16 16 16 16 16
21 21 22 22 23 22 22 22 21 21 21 21 21 20 19 19 18 18 18 18 17 17 17 17 17 17 17 17 16 16 16 16 16 16 16 16 16 16 16 16 16 16 16 16 16 16 16 16 16
21 21 22 23 23 22 22 21 21 21 21 21 20 20 19 19 19 18 18 18 18 17 17 17 17 17 17 16 16 16 16 16 16 16 16 16 16 16 15 15 15 15 15 15 15 15 15 15 15
21 22 22 22 22 22 21 21 21 21 21 20 20 19 19 19 19 18 18 18 18 18 17 17 17 17 17 16 16 16 16 16 16 16 16 16 15 15 15 15 15 15 15 15 15 15 15 15 15
22 21 21 21 22 22 22 20 20 21 21 20 19 19 19 19 19 18 18 18 18 18 18 17 17 17 17 16 16 16 16 16 16 16 16 15 15 15 15 15 15 15 15 15 15 15 15 15 15
21 20 19 20 21 22 21 19 20 21 20 19 19 19 19 19 18 18 18 18 18 18 18 17 17 17 17 16 16 16 16 16 16 16 15 15 15 15 15 15 15 15 15 15 15 15 15 15 15
19 19 19 20 21 21 20 19 19 21 20 19 19 19 19 19 18 18 18 18 18 18 17 17 17 17 17 16 16 16 16 16 16 15 15 15 15 15 15 15 15 15 15 15 15 14 14 14 14
19 19 20 20 21 21 20 19 19 20 20 19 19 19 19 19 19 18 18 18 18 18 17 17 17 17 17 16 16 16 16 15 15 15 15 15 15 15 15 15 14 14 14 14 14 14 14 14 14
20 20 20 20 21 21 20 19 19 20 19 19 19 19 19 19 19 18 18 18 18 18 17 17 17 17 17 16 16 16 16 15 15 15 15 15 14 14 14 14 14 14 14 14 14 14 14 14 14
20 20 20 20 21 21 19 19 19 19 19 19 19 19 19 19 18 18 18 18 18 18 17 17 17 17 17 16 16 16 16 15 15 15 15 14 14 14 14 14 14 14 14 14 14 14 14 13 13
20 20 20 20 21 20 20 19 19 19 19 20 19 19 19 19 19 18 18 18 18 18 17 17 17 17 17 16 16 16 16 15 15 15 15 14 14 14 14 14 14 14 14 13 13 13 13 13 13
19 21 21 21 19 18 19 17 18 18 18 18 18 19 19 19 19 18 18 18 18 18 17 17 17 17 16 16 16 16 16 15 15 15 15 14 14 14 14 14 13 13 13 13 13 13 13 13 13
20 21 21 20 19 18 18 17 17 18 18 17 18 18 18 19 19 19 18 18 18 18 17 17 17 17 16 16 16 16 16 15 15 15 14 14 14 14 14 14 13 13 13 13 13 13 13 13 13
21 20 19 17 17 17 18 17 17 16 18 18 17 18 18 19 19 18 18 18 18 17 17 17 17 17 16 16 16 16 15 15 15 15 14 14 14 14 14 14 13 13 13 13 13 13 13 13 13
19 17 16 17 16 16 17 17 17 17 18 18 17 18 18 18 18 18 18 18 17 17 17 17 17 16 16 16 16 15 15 15 15 15 14 14 14 14 14 14 13 13 13 13 13 13 13 13 13
18 17 16 16 16 16 18 17 17 18 18 18 18 18 18 18 18 18 18 18 17 17 17 17 16 16 16 16 15 15 15 15 14 14 14 14 14 14 14 13 13 13 13 13 13 13 13 13 12
18 17 17 16 16 16 16 17 18 18 17 17 17 17 17 17 17 17 17 17 17 17 17 17 16 16 16 15 15 15 15 14 14 14 14 14 14 14 13 13 13 13 13 13 13 13 12 12 12
19 17 15 16 16 16 16 16 16 17 16 16 16 16 17 17 17 17 17 17 17 16 16 16 16 16 15 15 15 15 14 14 14 14 14 13 13 13 13 13 13 13 13 13 13 12 12 12 12
18 18 16 15 15 15 15 16 17 16 16 16 16 16 17 17 17 17 17 16 16 16 16 16 15 15 15 15 14 14 14 14 14 14 13 13 13 13 13 13 13 13 12 12 12 12 12 12 12
18 18 16 15 15 14 14 15 17 16 16 16 16 17 17 17 17 16 16 16 16 16 15 15 15 15 14 14 14 14 14 14 14 13 13 13 13 13 13 12 12 12 12 12 12 12 12 12 12
Wind_Speed
1 2 3 3 5 5 2 1 1 3 4 5 7 9 8 6 4 6 3 7 9 6 7 9 9 10 11 11 12 12 13 13 13 13 13 14 14 14 14 13 12 12 12 11 11 11 10 10 10
1 2 3 4 5 3 1 1 4 4 6 7 7 8 7 6 4 7 4 8 9 8 8 9 10 11 11 11 12 12 12 13 13 13 13 13 13 13 13 13 12 12 11 10 10 10 10 10 10
0 1 3 4 3 3 3 3 5 4 5 5 5 6 5 4 4 4 6 10 9 8 8 9 11 11 11 11 12 12 12 12 12 12 13 12 12 12 13 13 12 11 11 10 10 10 10 9 9
3 4 4 4 4 2 5 4 5 6 5 5 6 6 4 3 4 6 10 11 10 7 8 10 11 11 11 11 12 12 12 12 12 12 12 12 12 12 12 13 12 11 11 10 10 9 9 9 10
3 4 5 3 3 1 2 3 4 6 4 5 7 6 4 3 7 11 11 11 10 7 8 10 11 11 11 11 11 12 12 12 12 12 11 12 11 12 12 12 12 11 11 10 10 9 9 10 10
4 4 4 3 2 0 0 3 6 8 7 7 7 6 2 2 7 9 9 9 9 8 7 9 11 12 11 11 11 12 11 12 12 11 11 11 11 11 11 11 11 11 11 10 9 9 9 9 10
4 4 3 4 3 1 1 3 5 6 6 5 6 6 3 2 5 8 9 9 8 8 7 6 8 9 10 10 10 10 10 11 11 11 10 11 10 10 10 9 10 10 10 9 9 9 8 9 9
5 4 3 2 4 2 2 3 5 6 5 4 5 7 5 6 6 8 8 8 8 6 6 6 6 7 6 7 9 10 10 10 10 10 10 10 9 8 8 8 8 8 8 7 7 7 8 8 9
4 5 2 2 5 3 3 4 3 4 6 4 4 5 7 10 9 9 8 6 6 6 4 5 5 5 5 6 7 8 8 8 8 8 9 8 6 5 5 5 6 6 6 6 6 6 7 7 8
4 3 2 2 5 5 4 5 4 5 6 5 6 6 9 10 10 10 9 7 6 6 5 4 5 5 5 5 6 5 5 6 6 5 6 5 4 4 4 3 4 4 5 5 6 6 6 6 5
3 4 2 2 3 5 4 3 3 7 4 6 9 10 10 9 9 9 8 7 7 6 6 4 5 5 4 4 5 4 4 4 4 4 4 3 3 3 3 3 3 4 4 5 5 5 5 5 5
3 1 3 3 3 4 3 3 4 5 6 8 12 13 11 10 10 9 9 7 6 6 6 5 5 5 4 4 4 3 3 3 2 3 3 4 2 2 2 2 2 3 3 4 4 4 5 5 5
2 1 2 3 4 4 4 4 4 3 5 9 12 12 11 10 8 7 7 8 7 6 5 6 6 5 4 4 3 3 2 2 2 3 4 5 3 2 2 2 2 2 3 3 3 3 4 4 4
4 3 2 3 3 3 5 3 4 4 8 11 12 11 10 9 8 7 6 6 6 6 6 6 6 6 5 4 3 2 3 3 3 4 4 5 4 3 2 2 2 3 3 4 3 4 4 4 4
3 3 1 1 3 3 5 2 2 5 9 11 11 10 8 7 7 8 8 7 6 6 6 6 7 6 5 4 4 3 3 4 3 3 4 5 5 4 3 2 2 2 3 5 5 5 5 4 4
3 2 1 4 4 4 6 3 5 6 10 9 9 9 8 7 7 7 7 6 6 6 6 6 6 6 5 4 4 3 4 4 3 3 4 4 5 6 4 3 2 3 4 4 3 3 4 4 4
2 2 4 4 4 4 5 5 6 6 10 10 9 8 8 6 6 6 7 7 7 7 6 6 5 6 5 5 4 4 4 3 3 4 4 4 5 6 5 3 2 3 3 3 3 3 3 3 3
4 3 3 4 3 4 4 6 6 6 9 9 9 8 8 8 8 8 7 7 7 6 6 6 5 6 5 4 3 3 3 2 3 3 3 4 4 5 5 3 3 4 3 3 3 3 3 2 2
4 3 3 4 3 4 5 6 7 7 7 8 8 9 9 8 7 7 7 7 6 5 5 5 5 4 5 3 3 3 2 1 1 2 3 4 4 4 5 3 3 3 3 2 2 2 3 2 2
2 2 2 2 2 3 4 5 5 7 8 9 11 11 10 7 5 6 6 6 7 7 6 6 6 5 5 4 3 3 3 2 2 1 2 3 4 4 4 4 2 2 2 2 2 2 2 1 2
2 3 4 3 1 2 2 4 3 3 4 5 7 9 9 10 9 8 7 7 7 7 7 7 7 6 6 5 4 3 3 2 2 1 0 1 3 3 3 3 3 2 2 2 1 2 2 1 1
3 4 4 3 1 3 2 3 6 4 3 4 5 7 8 8 8 8 8 8 8 8 7 7 8 7 6 6 6 6 4 3 3 2 1 1 2 2 3 3 3 2 2 2 1 2 2 2 0
4 3 1 2 2 2 1 3 6 2 4 6 6 7 8 9 9 8 8 9 8 7 7 7 7 6 5 6 7 6 4 3 2 2 2 1 0 1 2 3 2 2 2 2 1 1 1 2 2
1 3 5 4 3 2 5 5 5 4 7 6 5 5 7 8 8 7 6 6 5 5 5 6 6 6 6 6 6 7 6 5 4 3 2 1 1 1 1 2 2 2 1 2 2 2 2 2 2
5 5 3 3 2 5 3 4 6 6 4 6 6 6 5 6 7 6 6 5 5 6 6 6 7 6 6 6 6 6 6 6 7 5 4 3 2 2 3 2 2 2 2 2 2 2 1 2 2
3 6 6 4 4 4 2 3 4 1 2 4 5 5 5 5 5 6 6 6 6 6 6 7 7 6 6 6 6 5 5 4 4 5 4 4 4 4 3 3 3 3 3 2 2 1 2 2 2
3 3 6 5 2 2 3 2 3 3 5 5 6 6 4 4 4 5 4 4 5 5 5 7 7 6 6 6 5 5 5 5 4 4 4 3 3 3 2 3 2 2 2 2 2 2 2 2 2
4 4 4 3 2 2 3 3 4 3 3 3 3 4 4 3 3 3 4 4 3 4 4 4 6 6 5 5 6 5 4 4 4 3 3 3 3 3 2 2 3 3 3 2 2 2 2 2 2
2 1 3 3 4 4 3 5 4 7 7 6 5 5 5 4 4 3 3 3 3 3 4 3 3 4 4 4 4 4 3 3 3 3 4 3 3 2 3 3 3 3 3 3 3 3 3 3 2
4 4 4 3 3 3 3 6 3 5 5 6 5 4 4 4 3 3 3 4 4 4 3 3 2 3 3 4 4 4 3 3 3 3 3 3 3 3 3 3 2 3 3 3 3 4 3 4 4
Wind_Direction
317 104 93 64 56 55 55 345 111 70 62 62 75 82 86 71 90 126 155 137 130 128 115 107 104 101 98 98 98 94 92 92 92 91 89 86 85 82 81 83 85 87 87 89 91 88 89 89 86
63 115 68 59 82 77 34 198 102 99 131 119 81 79 79 74 85 110 124 136 130 123 117 113 110 104 100 99 100 98 96 95 93 91 90 88 86 84 82 82 85 87 89 89 89 90 90 87 84
203 137 86 70 99 142 152 171 130 109 109 100 81 61 78 106 110 124 146 138 126 119 118 119 114 109 105 102 102 101 99 97 94 92 91 91 90 87 84 82 86 87 89 89 90 89 91 86 81
70 51 62 76 96 163 162 172 134 109 78 67 94 70 59 81 133 133 137 131 124 123 125 122 118 113 110 106 104 103 102 99 97 95 94 93 92 91 87 83 83 87 88 87 87 88 88 82 78
70 77 67 74 95 121 159 154 126 108 99 85 92 90 65 31 107 124 130 131 129 129 130 128 122 117 113 110 107 104 103 101 99 97 96 94 93 95 92 87 82 83 88 86 85 85 86 81 76
61 71 86 107 109 68 76 113 97 96 110 109 100 102 94 120 119 131 132 135 136 138 137 133 130 123 117 115 112 108 105 103 99 97 98 98 94 94 95 91 86 83 82 82 81 83 83 79 74
106 92 121 139 126 106 138 109 108 115 110 123 120 104 123 165 144 137 135 132 129 132 130 127 129 127 124 121 116 112 109 106 101 98 99 100 96 93 91 90 89 86 83 79 76 78 80 77 74
125 102 90 129 131 153 172 110 116 109 101 106 109 130 161 190 150 129 126 123 126 127 130 132 127 124 123 125 120 115 111 109 106 102 100 99 98 96 92 89 88 84 83 81 77 75 71 71 71
94 81 106 166 154 169 145 104 87 90 94 71 82 134 159 152 133 123 114 111 124 129 135 134 127 124 125 127 121 117 113 111 109 106 105 98 92 92 90 88 88 82 77 71 71 75 69 63 61
92 116 195 189 159 155 139 126 130 94 83 73 73 89 123 133 134 133 134 139 139 145 155 148 136 133 129 123 109 101 103 101 100 100 100 100 98 93 93 84 79 72 57 51 57 64 66 60 56
121 156 169 110 130 129 123 116 111 120 120 151 147 145 143 141 141 144 148 150 151 150 152 151 144 143 135 116 111 98 96 94 89 94 101 105 96 84 76 63 54 48 46 42 42 49 57 59 62
106 145 140 134 115 107 121 114 98 128 171 168 157 151 150 151 156 156 152 149 146 140 151 156 143 136 132 122 117 108 101 95 90 90 98 105 94 70 67 72 58 53 54 51 48 50 55 63 70
116 148 121 131 119 117 108 108 117 144 152 140 141 143 152 158 159 155 154 153 150 149 149 147 143 141 131 117 120 115 110 118 120 96 95 108 107 98 86 82 68 63 61 61 59 56 68 72 71
173 147 132 144 142 141 127 122 112 174 143 137 144 154 160 160 158 149 150 152 155 153 147 143 144 143 135 136 131 121 114 106 95 90 96 107 109 102 102 84 65 54 65 75 80 74 77 70 73
130 104 40 214 179 167 116 61 185 185 148 151 158 160 159 160 154 158 163 162 161 156 148 145 146 141 141 135 128 119 113 110 100 98 102 103 107 103 102 86 68 57 72 77 73 68 67 65 63
66 79 224 255 188 174 130 206 236 181 151 161 163 162 163 168 164 166 164 161 158 151 146 150 146 140 137 128 119 112 110 108 102 100 100 96 103 109 109 96 79 75 78 76 74 61 60 53 53
50 191 220 251 211 166 150 204 231 182 159 168 175 174 170 169 171 174 169 164 162 158 154 149 143 140 140 131 114 110 106 99 98 97 96 97 106 110 108 105 100 91 80 66 71 64 72 63 44
219 203 209 215 219 172 177 215 222 187 173 179 181 179 179 178 185 179 170 166 163 159 154 149 147 143 139 126 104 88 87 84 80 90 97 100 102 105 102 101 96 95 85 63 63 72 57 64 40
198 182 210 230 213 177 206 219 222 200 183 187 187 184 186 192 190 170 168 163 158 154 149 151 148 153 146 135 129 121 128 120 86 89 105 103 102 109 109 108 101 94 95 99 94 88 68 41 36
190 189 221 268 235 181 208 238 233 205 197 191 187 187 186 184 181 175 170 164 167 169 165 157 161 160 160 159 155 150 148 147 150 103 92 103 109 115 117 118 122 108 99 84 77 82 83 26 46
271 204 205 207 319 12 89 315 278 248 198 181 186 185 181 180 182 183 180 177 171 174 176 171 172 168 166 154 131 113 88 70 66 65 113 108 128 125 120 130 131 129 123 129 129 127 124 115 359
245 238 195 183 115 272 148 245 272 245 205 199 196 185 183 183 179 177 183 183 183 186 180 172 171 167 166 156 149 150 152 165 193 185 187 175 137 136 136 144 141 144 140 150 167 139 137 138 181
217 247 219 196 163 285 259 177 274 245 208 218 209 193 186 182 175 176 184 187 186 181 174 170 166 166 167 164 161 158 161 172 167 158 155 168 182 151 152 158 146 150 163 175 174 138 132 152 167
137 41 26 43 81 265 232 180 257 230 213 202 200 190 178 175 171 169 170 170 173 170 166 162 160 167 168 163 161 162 165 167 157 166 176 193 237 243 207 178 159 170 184 190 189 177 155 165 160
78 85 33 352 352 253 229 173 238 237 206 179 177 178 170 165 162 158 158 164 169 172 173 166 162 166 169 165 168 173 173 173 175 181 188 191 202 224 230 200 190 195 205 191 168 162 177 184 178
179 144 160 199 227 276 322 211 254 275 147 133 130 132 128 139 146 157 172 174 175 175 174 171 172 172 170 173 182 182 177 176 186 187 185 194 204 215 211 194 195 204 201 193 170 165 203 194 197
163 189 174 150 228 259 275 289 338 57 76 91 103 107 127 143 146 155 152 159 171 172 174 172 170 168 175 180 181 183 181 181 189 191 188 199 211 210 198 199 198 206 204 198 177 189 211 193 201
167 160 97 126 180 249 274 246 221 201 171 132 132 141 155 148 142 148 152 161 162 165 166 160 162 169 172 176 181 183 185 183 182 180 194 201 213 209 194 204 205 215 217 209 188 201 211 182 213
185 151 131 143 163 171 237 263 219 191 183 178 185 176 162 156 160 163 169 168 153 127 123 131 147 156 166 177 182 176 182 178 174 182 197 201 200 195 198 207 210 218 221 213 199 211 200 190 215
182 184 151 166 236 185 190 257 256 184 184 178 182 181 165 154 157 156 158 148 141 139 138 147 150 156 175 180 172 168 171 169 172 186 197 190 192 198 198 201 209 225 227 222 214 219 211 203 210
Height
1506 1506 1507 1508 1511 1521 1525 1519 1512 1511 1511 1512 1511 1512 1516 1520 1524 1530 1528 1527 1527 1527 1527 1527 1526 1526 1526 1525 1524 1524 1524 1523 1523 1523 1523 1523 1523 1522 1522 1522 1521 1521 1521 1522 1522 1522 1522 1522 1523
1507 1507 1508 1509 1518 1531 1527 1517 1513 1511 1512 1512 1513 1515 1517 1521 1523 1525 1526 1527 1528 1528 1527 1527 1527 1527 1526 1526 1526 1525 1525 1525 1524 1524 1524 1524 1524 1523 1523 1522 1522 1522 1522 1523 1523 1523 1523 1524 1524
1507 1507 1509 1512 1521 1528 1524 1515 1512 1511 1511 1511 1515 1518 1520 1523 1524 1525 1526 1528 1528 1528 1528 1528 1528 1528 1528 1527 1527 1526 1526 1526 1526 1525 1525 1525 1525 1524 1524 1524 1523 1523 1523 1524 1524 1524 1524 1525 1525
1508 1509 1510 1516 1521 1518 1515 1513 1511 1511 1513 1514 1515 1520 1523 1525 1525 1526 1527 1528 1529 1529 1529 1529 1529 1529 1529 1528 1528 1528 1528 1527 1527 1527 1526 1526 1526 1526 1525 1525 1525 1525 1525 1525 1525 1525 1525 1526 1526
1507 1508 1515 1522 1520 1515 1512 1511 1510 1511 1513 1516 1517 1522 1525 1526 1526 1527 1528 1529 1529 1529 1529 1529 1530 1530 1529 1529 1529 1529 1529 1528 1528 1528 1528 1527 1527 1527 1527 1527 1526 1526 1526 1526 1526 1526 1527 1527 1527
1508 1510 1522 1526 1521 1516 1513 1511 1511 1513 1516 1517 1519 1523 1526 1527 1527 1528 1529 1530 1530 1530 1530 1530 1531 1531 1531 1530 1530 1530 1530 1530 1529 1529 1529 1529 1528 1528 1528 1528 1528 1527 1527 1528 1528 1528 1528 1528 1528
1509 1514 1521 1521 1521 1518 1514 1512 1513 1514 1516 1518 1519 1523 1526 1528 1528 1529 1530 1531 1531 1531 1531 1531 1531 1532 1532 1532 1532 1532 1531 1531 1531 1530 1530 1530 1530 1530 1530 1529 1529 1529 1529 1529 1529 1529 1529 1529 1529
1507 1513 1519 1520 1521 1519 1514 1513 1514 1514 1517 1519 1519 1522 1525 1527 1528 1529 1530 1531 1532 1532 1532 1533 1533 1533 1533 1533 1533 1533 1533 1532 1532 1532 1531 1531 1531 1531 1531 1531 1531 1531 1531 1531 1531 1531 1530 1530 1530
1508 1517 1523 1519 1518 1516 1513 1514 1515 1516 1517 1519 1520 1521 1523 1526 1528 1529 1530 1531 1532 1533 1533 1534 1534 1534 1534 1534 1534 1534 1533 1533 1533 1533 1533 1533 1532 1532 1532 1532 1532 1532 1532 1532 1532 1531 1531 1531 1531
1508 1519 1516 1511 1511 1513 1513 1513 1515 1517 1518 1520 1521 1523 1524 1526 1528 1529 1530 1531 1532 1533 1534 1534 1534 1535 1535 1535 1534 1534 1534 1534 1534 1534 1534 1534 1534 1533 1533 1533 1533 1533 1533 1533 1532 1532 1532 1532 1532
1508 1513 1511 1510 1510 1511 1513 1514 1515 1517 1520 1521 1521 1523 1525 1527 1528 1529 1530 1531 1532 1533 1534 1534 1535 1535 1535 1535 1535 1535 1535 1535 1535 1535 1535 1535 1535 1534 1534 1534 1534 1534 1534 1534 1533 1533 1533 1533 1532
1509 1509 1509 1510 1510 1511 1513 1514 1516 1517 1519 1520 1521 1523 1524 1526 1528 1529 1530 1531 1532 1533 1534 1534 1535 1535 1536 1536 1536 1536 1536 1536 1536 1535 1535 1535 1535 1535 1535 1535 1535 1535 1535 1535 1534 1534 1533 1533 1533
1509 1509 1509 1510 1511 1512 1513 1515 1516 1518 1519 1520 1521 1523 1524 1526 1527 1529 1530 1531 1532 1533 1533 1534 1535 1535 1536 1536 1537 1537 1536 1536 1536 1536 1536 1536 1536 1536 1536 1536 1536 1536 1536 1536 1535 1535 1534 1534 1533
1509 1509 1511 1511 1512 1513 1514 1516 1517 1518 1519 1520 1521 1523 1524 1526 1527 1528 1529 1530 1532 1532 1533 1534 1535 1535 1536 1536 1536 1536 1537 1537 1537 1536 1536 1536 1537 1537 1536 1537 1537 1536 1536 1536 1536 1535 1535 1534 1534
1508 1511 1513 1512 1512 1513 1514 1519 1517 1517 1519 1520 1521 1523 1524 1526 1527 1528 1528 1530 1531 1532 1533 1534 1535 1535 1536 1536 1536 1537 1537 1537 1537 1537 1537 1537 1537 1537 1537 1537 1537 1537 1537 1537 1536 1536 1535 1535 1534
1510 1516 1521 1514 1511 1512 1518 1525 1517 1516 1517 1519 1521 1522 1524 1525 1526 1527 1528 1529 1531 1532 1533 1533 1534 1535 1535 1536 1536 1537 1537 1537 1537 1537 1537 1537 1537 1537 1537 1537 1537 1537 1537 1537 1536 1536 1535 1535 1535
1518 1525 1523 1516 1510 1511 1516 1521 1515 1515 1516 1518 1519 1521 1522 1524 1525 1527 1528 1529 1530 1531 1532 1533 1534 1534 1535 1536 1536 1537 1537 1537 1537 1537 1537 1537 1537 1537 1537 1537 1537 1537 1537 1537 1537 1536 1536 1535 1535
1524 1523 1520 1518 1510 1511 1515 1517 1513 1514 1515 1516 1518 1519 1521 1522 1523 1525 1527 1528 1529 1530 1531 1532 1533 1534 1535 1535 1536 1536 1536 1536 1536 1536 1536 1537 1537 1537 1537 1536 1536 1537 1537 1537 1537 1536 1536 1536 1535
1513 1516 1518 1514 1508 1511 1514 1515 1513 1512 1514 1514 1516 1517 1518 1520 1522 1524 1525 1527 1528 1529 1530 1531 1532 1533 1534 1534 1535 1535 1535 1535 1536 1536 1536 1536 1536 1536 1536 1536 1536 1536 1536 1536 1536 1536 1536 1536 1535
1511 1516 1517 1512 1507 1510 1514 1514 1511 1510 1510 1511 1512 1514 1516 1518 1520 1522 1523 1525 1526 1527 1528 1530 1531 1531 1532 1533 1534 1534 1535 1535 1535 1535 1536 1536 1536 1536 1536 1536 1536 1536 1536 1536 1536 1536 1536 1536 1535
1512 1514 1514 1514 1510 1510 1514 1519 1513 1510 1509 1510 1511 1511 1513 1515 1516 1518 1520 1522 1523 1525 1526 1527 1529 1530 1531 1532 1533 1533 1534 1534 1534 1534 1535 1535 1535 1535 1535 1535 1535 1535 1535 1535 1535 1535 1535 1535 1535
1515 1507 1507 1510 1518 1524 1520 1534 1519 1512 1510 1509 1509 1510 1511 1513 1514 1516 1518 1519 1521 1522 1524 1525 1527 1528 1529 1530 1531 1531 1532 1532 1532 1533 1534 1534 1534 1534 1535 1535 1535 1535 1535 1535 1535 1535 1534 1534 1534
1508 1504 1506 1509 1516 1524 1522 1530 1525 1513 1513 1510 1508 1507 1508 1510 1512 1514 1515 1517 1519 1521 1522 1523 1525 1526 1527 1528 1529 1530 1530 1531 1532 1532 1533 1533 1533 1533 1533 1534 1534 1534 1534 1534 1534 1533 1533 1533 1533
1502 1506 1510 1516 1523 1533 1523 1528 1527 1516 1509 1507 1506 1506 1506 1508 1510 1512 1514 1516 1518 1520 1521 1522 1523 1524 1525 1526 1527 1528 1529 1529 1530 1531 1531 1531 1532 1532 1532 1532 1533 1533 1532 1532 1532 1532 1532 1532 1532
1507 1521 1534 1535 1540 1535 1518 1522 1522 1506 1503 1503 1503 1504 1505 1506 1508 1510 1512 1514 1515 1517 1519 1520 1521 1522 1523 1524 1525 1526 1527 1528 1528 1529 1530 1530 1530 1530 1530 1531 1531 1531 1531 1531 1531 1530 1530 1530 1530
1510 1518 1535 1542 1542 1533 1519 1522 1514 1502 1501 1501 1502 1503 1505 1506 1507 1508 1510 1511 1513 1515 1516 1517 1519 1520 1521 1522 1523 1524 1525 1526 1527 1527 1528 1528 1528 1529 1529 1529 1529 1529 1529 1529 1529 1528 1528 1528 1528
1510 1516 1516 1528 1529 1534 1527 1517 1509 1503 1503 1503 1503 1504 1505 1506 1507 1508 1509 1510 1512 1513 1514 1515 1516 1518 1519 1520 1521 1522 1523 1524 1524 1525 1526 1526 1527 1527 1527 1527 1527 1527 1527 1527 1527 1526 1526 1526 1526
1505 1509 1520 1527 1535 1539 1530 1524 1519 1509 1507 1505 1505 1505 1505 1506 1507 1508 1508 1509 1510 1511 1513 1514 1515 1516 1517 1518 1519 1520 1521 1522 1522 1523 1524 1524 1524 1525 1525 1525 1525 1525 1525 1525 1524 1524 1524 1524 1524
1508 1510 1515 1525 1529 1537 1538 1528 1505 1505 1503 1504 1504 1504 1505 1505 1506 1507 1507 1508 1509 1510 1511 1512 1513 1514 1515 1516 1517 1518 1518 1519 1520 1521 1521 1521 1522 1522 1522 1522 1522 1522 1522 1522 1522 1522 1522 1521 1521
1503 1506 1514 1526 1527 1529 1533 1525 1499 1500 1500 1502 1503 1504 1504 1504 1505 1506 1507 1507 1508 1509 1510 1511 1512 1513 1513 1514 1515 1515 1516 1517 1517 1518 1518 1519 1519 1520 1520 1520 1520 1519 1519 1519 1519 1519 1519 1519 1518